Regional Weather Roundup
Issued by NWS

Home | Current Version | Previous Version | Graphics & Text | Print | Product List | Glossary On
Versions: 1 2 3 4 5 6 7 8 9 10 11 12 13 14 15 16 17 18 19 20 21 22 23 24 25 26 27 28 29 30 31 32 33 34 35 36 37 38 39 40 41 42 43 44 45 46 47 48 49 50
000
ASUS43 KIND 190159
RWRIN

WEATHER ROUNDUP FOR INDIANA
NATIONAL WEATHER SERVICE INDIANAPOLIS IN
1000 PM EDT SAT APR 18 2015

NOTE: "FAIR" INDICATES FEW OR NO CLOUDS BELOW 12,000 FEET WITH NO
SIGNIFICANT WEATHER AND/OR OBSTRUCTIONS TO VISIBILITY.

* - STATION DOES NOT REPORT WEATHER SUCH AS PRECIPITATION OR FOG.

+ - STATION NOT QUALITY CONTROLLED BY THE NATIONAL WEATHER SERVICE.
    USE DATA WITH CAUTION...ESPECIALLY DEWPOINT AND RELATIVE
    HUMIDITY OBSERVATIONS.

INZ001>003-010>013-019-020-190300-
NORTHWEST INDIANA

CITY           SKY/WX    TMP DP  RH WIND       PRES   REMARKS
GARY /AIRPORT/ CLOUDY    45  34  65 N6        30.03R
RENSSELAER +   MOCLDY    54  41  62 N3        29.99R

$$

LMZ046-743>745-190300-
SOUTHERN LAKE MICHIGAN

STATION/POSITION TIME  TEMP WIND        PRES
                       AIR  DIR/SP/G
                 (UTC) (F)  (DEG/KT/KT) (MB)
BURNS HARBOR     0100   42  320/  7/  8 1017.3R
MICHIGAN CITY    0100   42  260/  6/  7   N/A
4NW MICH CITY    0100   41  290/  6/  8   N/A

$$

INZ004-005-014>016-021>024-190300-
NORTH CENTRAL INDIANA

CITY           SKY/WX    TMP DP  RH WIND       PRES   REMARKS
GOSHEN         CLOUDY    60  31  33 E18G26    30.05R
SOUTH BEND     CLOUDY    66  38  35 E17G28    30.03R

$$

INZ006>009-017-018-025>027-190300-
NORTHEAST INDIANA

CITY           SKY/WX    TMP DP  RH WIND       PRES   REMARKS
ANGOLA *+      CLEAR     57  25  28 E13       30.09R
FORT WAYNE     CLOUDY    58  34  40 E20G26    30.06R

$$

INZ028-029-035-036-043>045-051>053-190300-
WEST CENTRAL INDIANA

CITY           SKY/WX    TMP DP  RH WIND       PRES   REMARKS
CRAWFORDSVL +  MOCLDY    63  43  47 E3        29.96S
GREENCASTLE +  CLOUDY    63  45  51 E3        29.97R
LAFAYETTE      PTCLDY    62  49  62 CALM      29.96R
TERRE HAUTE    CLOUDY    65  50  58 E8        29.94R

$$

INZ030>032-037>040-046>048-054>057-064-065-190300-
CENTRAL INDIANA

CITY           SKY/WX    TMP DP  RH WIND       PRES   REMARKS
COLUMBUS       PTCLDY    63  46  55 E7        29.96R
INDIANAPOLIS   MOCLDY    69  46  43 E8        29.95S
-EAGLE CREEK   MOCLDY    69  46  43 E3        29.96S
KOKOMO *+      PTCLDY    64  48  55 E21G26    29.99R
MT COMFORT *+  PTCLDY    63  41  45 E5        29.98S
SHELBYVILLE    MOCLDY    65  49  56 E9        29.96S

$$

INZ033-034-041-042-049-050-058-059-190300-
EAST CENTRAL INDIANA

CITY           SKY/WX    TMP DP  RH WIND       PRES   REMARKS
MUNCIE         MOCLDY    66  50  56 E14       30.01R

$$

INZ060-061-067>069-081>083-085>088-190300-
SOUTHWEST INDIANA

CITY           SKY/WX    TMP DP  RH WIND       PRES   REMARKS
EVANSVILLE     CLOUDY    69  54  58 NE7       29.89S
HUNTINGBURG *+ MOCLDY    70  46  43 E8        29.91S

$$

INZ062-063-066-070>080-084-089>092-190300-
SOUTH CENTRAL AND SOUTHEAST INDIANA

CITY           SKY/WX    TMP DP  RH WIND       PRES   REMARKS
BLOOMINGTON    MOCLDY    63  50  62 CALM      29.95R
MADISON *+     MOCLDY    66  43  42 NE5       29.97S

$$



USA.gov is the U.S. government's official web portal to all federal, state and local government web resources and services.